Weather Roundup
Issued by NWS Chicago, IL

Home | Current Version | Previous Version | Graphics & Text | Print | Product List | Glossary On
Versions: 1 2 3 4 5 6 7 8 9 10 11 12 13 14 15 16 17 18 19 20 21 22 23 24 25 26 27 28 29 30 31 32 33 34 35 36 37 38 39 40 41 42 43 44 45 46 47 48 49 50
000
NZUS59 KLOT 062212
HRRLOT

CHICAGO AREA WEATHER ROUNDUP
NATIONAL WEATHER SERVICE CHICAGO/ROMEOVILLE IL
500 PM CDT MON JUL 06 2015

NOTE: "FAIR" INDICATES FEW OR NO CLOUDS BELOW 12,000 FEET WITH NO
SIGNIFICANT WEATHER AND/OR OBSTRUCTIONS TO VISIBILITY.

* THESE STATIONS ARE NOT UNDER NWS QUALITY CONTROL. THEY ALSO MAY NOT
  REPORT WEATHER SUCH AS PRECIPITATION OR FOG.

ILZ005-006-012>014-019>023-062300-
NORTHEAST ILLINOIS

CITY           SKY/WX    TMP DP  RH WIND       PRES   REMARKS
OHARE          CLOUDY    79  69  71 S8        29.86F HX  81
MIDWAY         CLOUDY    81  67  62 SE12      29.88F HX  83
AURORA         PTSUNNY   84  70  62 S13       29.87F HX  88
LANSING*       CLOUDY    74  67  80 SE5       29.91S
JOLIET*        CLOUDY    83  76  81 SW7       29.88F HX  91
WAUKEGAN       CLOUDY    74  70  87 S7        29.85F
DUPAGE AIRPORT PTSUNNY   83  73  72 S15       29.86F HX  89
WHEELING       CLOUDY    79  71  76 S13       29.86F HX  82
KANKAKEE*      CLOUDY    83  74  73 S9        29.90F HX  90
MORRIS*        CLOUDY    83  71  67 S14G21    29.86F HX  87
LEWIS AIRPORT* CLOUDY    79  72  80 S7        29.88F HX  82
NORTHERLY IS     N/A     74  66  76 SE10        N/A
$$

WIZ051-052-058>065-066-070>072-062300-
SOUTHEAST WISCONSIN

CITY           SKY/WX    TMP DP  RH WIND       PRES   REMARKS
MILWAUKEE      CLOUDY    81  67  62 SW17G25   29.84S HX  83
KENOSHA*       CLOUDY    75  69  81 SW9       29.86S
RACINE*        CLOUDY    75  69  81 S8        29.87S
BURLINGTON     CLOUDY    74  67  79 SW9       29.86S
WAUKESHA       PTSUNNY   75  68  78 S8        29.86S
WEST BEND      CLOUDY    79  70  73 SW10      29.83F HX  81
$$

INZ001>003-010>013-019-020-062300-
NORTHWEST INDIANA

CITY           SKY/WX    TMP DP  RH WIND       PRES   REMARKS
GARY*          RAIN     N/A N/A N/A W14G32    29.95R
MICHIGAN CITY* NOT AVBL
RENSSELAER*    NOT AVBL
VALPARAISO     PTSUNNY   83  69  62 S9        29.92F HX  86
$$

LMZ740>746-062300-
SOUTHERN LAKE MICHIGAN

STATION/POSITION TIME  SKY/WX   TEMP WIND        PRES    VSBY
                                AIR  DIR/SP/G
                 (UTC)          (F)  (DEG/KT/KT) (MB)    (MI)
HARRISON CRIB    2100            73  150/  7/ 10   N/A
BURNHAM HARBOR   2200            75  160/  6/ 10   N/A
CALUMET HARBOR   2100            80  310/  3/  5   N/A
BURNS HARBOR     2100            84  200/ 14/ 20 1013.5F
MICHIGAN CITY    2100            83  170/ 14/ 18   N/A
$$

ABBREVIATIONS USED IN REMARKS
   TC - TEMPERATURE IN CELSIUS
  WCI - WIND CHILL INDEX
   HX - HEAT INDEX
  VSB - VISIBILITY
$$


USA.gov is the U.S. government's official web portal to all federal, state and local government web resources and services.